Year,Month,Day,Hour,Minute,Value (Times are PST for temperature in C)
2018,03,11,00,00,0.60
2018,03,11,00,01,0.50
2018,03,11,00,02,0.60
2018,03,11,00,03,0.50
2018,03,11,00,04,0.50
2018,03,11,00,05,0.50
2018,03,11,00,06,0.50
2018,03,11,00,07,0.50
2018,03,11,00,08,0.60
2018,03,11,00,09,0.50
2018,03,11,00,10,0.50
2018,03,11,00,11,0.50
2018,03,11,00,12,0.50
2018,03,11,00,13,0.50
2018,03,11,00,14,0.50
2018,03,11,00,15,0.50
2018,03,11,00,16,0.50
2018,03,11,00,17,0.50
2018,03,11,00,18,0.50
2018,03,11,00,19,0.60
2018,03,11,00,20,0.60
2018,03,11,00,21,0.50
2018,03,11,00,22,0.60
2018,03,11,00,23,0.50
2018,03,11,00,24,0.60
2018,03,11,00,25,0.50
2018,03,11,00,26,0.50
2018,03,11,00,27,0.50
2018,03,11,00,28,0.50
2018,03,11,00,29,0.50
2018,03,11,00,30,0.50
2018,03,11,00,31,0.50
2018,03,11,00,32,0.50
2018,03,11,00,33,0.50
2018,03,11,00,34,0.50
2018,03,11,00,35,0.50
2018,03,11,00,36,0.50
2018,03,11,00,37,0.50
2018,03,11,00,38,0.50
2018,03,11,00,39,0.50
2018,03,11,00,40,0.50
2018,03,11,00,41,0.50
2018,03,11,00,42,0.50
2018,03,11,00,43,0.50
2018,03,11,00,44,0.40
2018,03,11,00,45,0.40
2018,03,11,00,46,0.40
2018,03,11,00,47,0.40
2018,03,11,00,48,0.40
2018,03,11,00,49,0.40
2018,03,11,00,50,0.40
2018,03,11,00,51,0.40
2018,03,11,00,52,0.40
2018,03,11,00,53,0.40
2018,03,11,00,54,0.40
2018,03,11,00,55,0.30
2018,03,11,00,56,0.30
2018,03,11,00,57,0.30
2018,03,11,00,58,0.30
2018,03,11,00,59,0.30
2018,03,11,01,00,0.30
2018,03,11,01,01,0.30
2018,03,11,01,02,0.30
2018,03,11,01,03,0.30
2018,03,11,01,04,0.30
2018,03,11,01,05,0.30
2018,03,11,01,06,0.30
2018,03,11,01,07,0.30
2018,03,11,01,08,0.30
2018,03,11,01,09,0.30
2018,03,11,01,10,0.30
2018,03,11,01,11,0.30
2018,03,11,01,12,0.30
2018,03,11,01,13,0.30
2018,03,11,01,14,0.30
2018,03,11,01,15,0.30
2018,03,11,01,16,0.30
2018,03,11,01,17,0.30
2018,03,11,01,18,0.30
2018,03,11,01,19,0.30
2018,03,11,01,20,0.30
2018,03,11,01,21,0.30
2018,03,11,01,22,0.30
2018,03,11,01,23,0.30
2018,03,11,01,24,0.30
2018,03,11,01,25,0.30
2018,03,11,01,26,0.30
2018,03,11,01,27,0.30
2018,03,11,01,28,0.30
2018,03,11,01,29,0.30
2018,03,11,01,30,0.30
2018,03,11,01,31,0.30
2018,03,11,01,32,0.30
2018,03,11,01,33,0.30
2018,03,11,01,34,0.30
2018,03,11,01,35,0.30
2018,03,11,01,36,0.30
2018,03,11,01,37,0.30
2018,03,11,01,38,0.30
2018,03,11,01,39,0.30
2018,03,11,01,40,0.30
2018,03,11,01,41,0.30
2018,03,11,01,42,0.30
2018,03,11,01,43,0.30
2018,03,11,01,44,0.30
2018,03,11,01,45,0.30
2018,03,11,01,46,0.30
2018,03,11,01,47,0.30
2018,03,11,01,48,0.30
2018,03,11,01,49,0.30
2018,03,11,01,50,0.30
2018,03,11,01,51,0.30
2018,03,11,01,52,0.30
2018,03,11,01,53,0.30
2018,03,11,01,54,0.30
2018,03,11,01,55,0.30
2018,03,11,01,56,0.30
2018,03,11,01,57,0.30
2018,03,11,01,58,0.30
2018,03,11,01,59,0.30
2018,03,11,03,00,0.30
2018,03,11,03,01,0.30
2018,03,11,03,02,0.30
2018,03,11,03,03,0.30
2018,03,11,03,04,0.30
2018,03,11,03,05,0.30
2018,03,11,03,06,0.30
2018,03,11,03,07,0.30
2018,03,11,03,08,0.30
2018,03,11,03,09,0.30
2018,03,11,03,10,0.30
2018,03,11,03,11,0.30
2018,03,11,03,12,0.30
2018,03,11,03,13,0.30
2018,03,11,03,14,0.30
2018,03,11,03,15,0.30
2018,03,11,03,16,0.30
2018,03,11,03,17,0.30
2018,03,11,03,18,0.20
2018,03,11,03,19,0.20
2018,03,11,03,20,0.20
2018,03,11,03,21,0.20
2018,03,11,03,22,0.20
2018,03,11,03,23,0.20
2018,03,11,03,24,0.20
2018,03,11,03,25,0.20
2018,03,11,03,26,0.20
2018,03,11,03,27,0.20
2018,03,11,03,28,0.20
2018,03,11,03,29,0.20
2018,03,11,03,30,0.20
2018,03,11,03,31,0.20
2018,03,11,03,32,0.20
2018,03,11,03,33,0.20
2018,03,11,03,34,0.20
2018,03,11,03,35,0.20
2018,03,11,03,36,0.10
2018,03,11,03,37,0.10
2018,03,11,03,38,0.10
2018,03,11,03,39,0.10
2018,03,11,03,40,0.10
2018,03,11,03,41,0.10
2018,03,11,03,42,0.10
2018,03,11,03,43,0.10
2018,03,11,03,44,0.10
2018,03,11,03,45,0.10
2018,03,11,03,46,0.10
2018,03,11,03,47,0.10
2018,03,11,03,48,0.10
2018,03,11,03,49,0.10
2018,03,11,03,50,0.10
2018,03,11,03,51,0.10
2018,03,11,03,52,0.10
2018,03,11,03,53,0.10
2018,03,11,03,54,0.10
2018,03,11,03,55,0.10
2018,03,11,03,56,0.20
2018,03,11,03,57,0.20
2018,03,11,03,58,0.20
2018,03,11,03,59,0.20
2018,03,11,04,00,0.20
2018,03,11,04,01,0.20
2018,03,11,04,02,0.20
2018,03,11,04,03,0.20
2018,03,11,04,04,0.20
2018,03,11,04,05,0.20
2018,03,11,04,06,0.20
2018,03,11,04,07,0.20
2018,03,11,04,08,0.20
2018,03,11,04,09,0.20
2018,03,11,04,10,0.20
2018,03,11,04,11,0.20
2018,03,11,04,12,0.30
2018,03,11,04,13,0.30
2018,03,11,04,14,0.30
2018,03,11,04,15,0.30
2018,03,11,04,16,0.30
2018,03,11,04,17,0.30
2018,03,11,04,18,0.30
2018,03,11,04,19,0.30
2018,03,11,04,20,0.30
2018,03,11,04,21,0.30
2018,03,11,04,22,0.30
2018,03,11,04,23,0.30
2018,03,11,04,24,0.30
2018,03,11,04,25,0.30
2018,03,11,04,26,0.30
2018,03,11,04,27,0.20
2018,03,11,04,28,0.20
2018,03,11,04,29,0.20
2018,03,11,04,30,0.20
2018,03,11,04,31,0.20
2018,03,11,04,32,0.20
2018,03,11,04,33,0.20
2018,03,11,04,34,0.20
2018,03,11,04,35,0.20
2018,03,11,04,36,0.10
2018,03,11,04,37,0.10
2018,03,11,04,38,0.10
2018,03,11,04,39,0.10
2018,03,11,04,40,0.10
2018,03,11,04,41,0.10
2018,03,11,04,42,0.10
2018,03,11,04,43,0.10
2018,03,11,04,44,0.10
2018,03,11,04,45,0.00
2018,03,11,04,46,0.00
2018,03,11,04,47,0.00
2018,03,11,04,48,0.00
2018,03,11,04,49,0.00
2018,03,11,04,50,0.00
2018,03,11,04,51,0.00
2018,03,11,04,52,0.00
2018,03,11,04,53,0.00
2018,03,11,04,54,0.00
2018,03,11,04,55,0.00
2018,03,11,04,56,0.00
2018,03,11,04,57,0.00
2018,03,11,04,58,0.10
2018,03,11,04,59,0.10
2018,03,11,05,00,0.10
2018,03,11,05,01,0.10
2018,03,11,05,02,0.10
2018,03,11,05,03,0.10
2018,03,11,05,04,0.10
2018,03,11,05,05,0.10
2018,03,11,05,06,0.10
2018,03,11,05,07,0.10
2018,03,11,05,08,0.10
2018,03,11,05,09,0.10
2018,03,11,05,10,0.10
2018,03,11,05,11,0.10
2018,03,11,05,12,0.10
2018,03,11,05,13,0.10
2018,03,11,05,14,0.10
2018,03,11,05,15,0.00
2018,03,11,05,16,0.00
2018,03,11,05,17,0.00
2018,03,11,05,18,0.00
2018,03,11,05,19,0.00
2018,03,11,05,20,0.00
2018,03,11,05,21,-0.10
2018,03,11,05,22,0.00
2018,03,11,05,23,-0.10
2018,03,11,05,24,-0.10
2018,03,11,05,25,-0.10
2018,03,11,05,26,-0.10
2018,03,11,05,27,-0.10
2018,03,11,05,28,-0.10
2018,03,11,05,29,-0.10
2018,03,11,05,30,-0.10
2018,03,11,05,31,-0.10
2018,03,11,05,32,-0.10
2018,03,11,05,33,-0.10
2018,03,11,05,34,-0.10
2018,03,11,05,35,-0.10
2018,03,11,05,36,-0.10
2018,03,11,05,37,-0.10
2018,03,11,05,38,-0.10
2018,03,11,05,39,-0.10
2018,03,11,05,40,-0.10
2018,03,11,05,41,-0.10
2018,03,11,05,42,-0.10
2018,03,11,05,43,-0.10
2018,03,11,05,44,-0.10
2018,03,11,05,45,-0.10
2018,03,11,05,46,-0.10
2018,03,11,05,47,-0.10
2018,03,11,05,48,-0.10
2018,03,11,05,49,-0.10
2018,03,11,05,50,-0.10
2018,03,11,05,51,-0.10
2018,03,11,05,52,-0.10
2018,03,11,05,53,-0.10
2018,03,11,05,54,-0.10
2018,03,11,05,55,-0.10
2018,03,11,05,56,-0.10
2018,03,11,05,57,-0.10
2018,03,11,05,58,-0.10
2018,03,11,05,59,-0.10
2018,03,11,06,00,-0.10
2018,03,11,06,01,-0.10
2018,03,11,06,02,-0.10
2018,03,11,06,03,-0.10
2018,03,11,06,04,-0.10
2018,03,11,06,05,-0.10
2018,03,11,06,06,-0.10
2018,03,11,06,07,-0.10
2018,03,11,06,08,-0.10
2018,03,11,06,09,-0.10
2018,03,11,06,10,-0.10
2018,03,11,06,11,-0.10
2018,03,11,06,12,-0.10
2018,03,11,06,13,-0.10
2018,03,11,06,14,0.00
2018,03,11,06,15,0.00
2018,03,11,06,16,0.00
2018,03,11,06,17,0.00
2018,03,11,06,18,0.10
2018,03,11,06,19,0.10
2018,03,11,06,20,0.10
2018,03,11,06,21,0.10
2018,03,11,06,22,0.10
2018,03,11,06,23,0.10
2018,03,11,06,24,0.10
2018,03,11,06,25,0.10
2018,03,11,06,26,0.10
2018,03,11,06,27,0.10
2018,03,11,06,28,0.10
2018,03,11,06,29,0.00
2018,03,11,06,30,0.00
2018,03,11,06,31,0.00
2018,03,11,06,32,0.00
2018,03,11,06,33,0.00
2018,03,11,06,34,-0.10
2018,03,11,06,35,-0.10
2018,03,11,06,36,-0.10
2018,03,11,06,37,-0.10
2018,03,11,06,38,-0.10
2018,03,11,06,39,-0.10
2018,03,11,06,40,-0.10
2018,03,11,06,41,-0.10
2018,03,11,06,42,-0.10
2018,03,11,06,43,-0.10
2018,03,11,06,44,-0.10
2018,03,11,06,45,-0.10
2018,03,11,06,46,-0.10
2018,03,11,06,47,-0.10
2018,03,11,06,48,-0.10
2018,03,11,06,49,-0.10
2018,03,11,06,50,-0.10
2018,03,11,06,51,-0.10
2018,03,11,06,52,-0.10
2018,03,11,06,53,-0.10
2018,03,11,06,54,-0.10
2018,03,11,06,55,-0.10
2018,03,11,06,56,0.00
2018,03,11,06,57,-0.10
2018,03,11,06,58,0.00
2018,03,11,06,59,0.00
2018,03,11,07,00,0.00
2018,03,11,07,01,0.00
2018,03,11,07,02,-0.10
2018,03,11,07,03,-0.10
2018,03,11,07,04,-0.10
2018,03,11,07,05,0.00
2018,03,11,07,06,-0.10
2018,03,11,07,07,0.00
2018,03,11,07,08,0.00
2018,03,11,07,09,0.00
2018,03,11,07,10,0.00
2018,03,11,07,11,0.00
2018,03,11,07,12,0.00
2018,03,11,07,13,0.00
2018,03,11,07,14,0.00
2018,03,11,07,15,-0.10
2018,03,11,07,16,-0.10
2018,03,11,07,17,-0.10
2018,03,11,07,18,-0.10
2018,03,11,07,19,-0.10
2018,03,11,07,20,-0.10
2018,03,11,07,21,-0.10
2018,03,11,07,22,-0.10
2018,03,11,07,23,-0.10
2018,03,11,07,24,-0.10
2018,03,11,07,25,-0.10
2018,03,11,07,26,-0.10
2018,03,11,07,27,-0.10
2018,03,11,07,28,-0.10
2018,03,11,07,29,-0.20
2018,03,11,07,30,-0.20
2018,03,11,07,31,-0.20
2018,03,11,07,32,-0.20
2018,03,11,07,33,-0.20
2018,03,11,07,34,-0.20
2018,03,11,07,35,-0.20
2018,03,11,07,36,-0.20
2018,03,11,07,37,-0.20
2018,03,11,07,38,-0.20
2018,03,11,07,39,-0.20
2018,03,11,07,40,-0.10
2018,03,11,07,41,-0.20
2018,03,11,07,42,-0.20
2018,03,11,07,43,-0.20
2018,03,11,07,44,-0.20
2018,03,11,07,45,-0.20
2018,03,11,07,46,-0.20
2018,03,11,07,47,-0.20
2018,03,11,07,48,-0.20
2018,03,11,07,49,-0.20
2018,03,11,07,50,-0.20
2018,03,11,07,51,-0.20
2018,03,11,07,52,-0.10
2018,03,11,07,53,-0.10
2018,03,11,07,54,-0.10
2018,03,11,07,55,-0.10
2018,03,11,07,56,-0.10
2018,03,11,07,57,-0.10
2018,03,11,07,58,0.00
2018,03,11,07,59,0.00
2018,03,11,08,00,0.00
2018,03,11,08,01,0.00
2018,03,11,08,02,0.10
2018,03,11,08,03,0.10
2018,03,11,08,04,0.10
2018,03,11,08,05,0.10
2018,03,11,08,06,0.10
2018,03,11,08,07,0.10
2018,03,11,08,08,0.10
2018,03,11,08,09,0.10
2018,03,11,08,10,0.10
2018,03,11,08,11,0.10
2018,03,11,08,12,0.20
2018,03,11,08,13,0.20
2018,03,11,08,14,0.20
2018,03,11,08,15,0.20
2018,03,11,08,16,0.20
2018,03,11,08,17,0.30
2018,03,11,08,18,0.30
2018,03,11,08,19,0.30
2018,03,11,08,20,0.30
2018,03,11,08,21,0.30
2018,03,11,08,22,0.30
2018,03,11,08,23,0.30
2018,03,11,08,24,0.40
2018,03,11,08,25,0.50
2018,03,11,08,26,0.60
2018,03,11,08,27,0.60
2018,03,11,08,28,0.70
2018,03,11,08,29,0.70
2018,03,11,08,30,0.70
2018,03,11,08,31,0.80
2018,03,11,08,32,0.80
2018,03,11,08,33,0.80
2018,03,11,08,34,0.80
2018,03,11,08,35,0.90
2018,03,11,08,36,0.90
2018,03,11,08,37,0.90
2018,03,11,08,38,0.90
2018,03,11,08,39,1.00
2018,03,11,08,40,1.00
2018,03,11,08,41,1.10
2018,03,11,08,42,1.10
2018,03,11,08,43,1.10
2018,03,11,08,44,1.20
2018,03,11,08,45,1.20
2018,03,11,08,46,1.20
2018,03,11,08,47,1.20
2018,03,11,08,48,1.30
2018,03,11,08,49,1.30
2018,03,11,08,50,1.40
2018,03,11,08,51,1.40
2018,03,11,08,52,1.50
2018,03,11,08,53,1.50
2018,03,11,08,54,1.60
2018,03,11,08,55,1.70
2018,03,11,08,56,1.80
2018,03,11,08,57,1.80
2018,03,11,08,58,1.90
2018,03,11,08,59,2.00
2018,03,11,09,00,2.10
2018,03,11,09,01,2.20
2018,03,11,09,02,2.30
2018,03,11,09,03,2.30
2018,03,11,09,04,2.40
2018,03,11,09,05,2.40
2018,03,11,09,06,2.50
2018,03,11,09,07,2.50
2018,03,11,09,08,2.60
2018,03,11,09,09,2.60
2018,03,11,09,10,2.70
2018,03,11,09,11,2.80
2018,03,11,09,12,2.90
2018,03,11,09,13,3.00
2018,03,11,09,14,3.20
2018,03,11,09,15,3.20
2018,03,11,09,16,3.30
2018,03,11,09,17,3.30
2018,03,11,09,18,3.40
2018,03,11,09,19,3.50
2018,03,11,09,20,3.50
2018,03,11,09,21,3.60
2018,03,11,09,22,3.80
2018,03,11,09,23,3.90
2018,03,11,09,24,4.00
2018,03,11,09,25,4.10
2018,03,11,09,26,4.20
2018,03,11,09,27,4.30
2018,03,11,09,28,4.40
2018,03,11,09,29,4.40
2018,03,11,09,30,4.50
2018,03,11,09,31,4.60
2018,03,11,09,32,4.70
2018,03,11,09,33,4.70
2018,03,11,09,34,4.80
2018,03,11,09,35,4.90
2018,03,11,09,36,5.00
2018,03,11,09,37,5.10
2018,03,11,09,38,5.30
2018,03,11,09,39,5.40
2018,03,11,09,40,5.50
2018,03,11,09,41,5.70
2018,03,11,09,42,5.80
2018,03,11,09,43,6.00
2018,03,11,09,44,6.10
2018,03,11,09,45,6.20
2018,03,11,09,46,6.30
2018,03,11,09,47,6.40
2018,03,11,09,48,6.50
2018,03,11,09,49,6.60
2018,03,11,09,50,6.70
2018,03,11,09,51,6.80
2018,03,11,09,52,6.90
2018,03,11,09,53,7.00
2018,03,11,09,54,7.00
2018,03,11,09,55,7.10
2018,03,11,09,56,7.20
2018,03,11,09,57,7.30
2018,03,11,09,58,7.30
2018,03,11,09,59,7.40
2018,03,11,10,00,7.40
2018,03,11,10,01,7.50
2018,03,11,10,02,7.50
2018,03,11,10,03,7.60
2018,03,11,10,04,7.60
2018,03,11,10,05,7.70
2018,03,11,10,06,7.70
2018,03,11,10,07,7.70
2018,03,11,10,08,7.80
2018,03,11,10,09,7.80
2018,03,11,10,10,7.80
2018,03,11,10,11,7.80
2018,03,11,10,12,7.90
2018,03,11,10,13,7.90
2018,03,11,10,14,7.90
2018,03,11,10,15,7.90
2018,03,11,10,16,8.00
2018,03,11,10,17,8.00
2018,03,11,10,18,8.10
2018,03,11,10,19,8.10
2018,03,11,10,20,8.10
2018,03,11,10,21,8.10
2018,03,11,10,22,8.20
2018,03,11,10,23,8.20
2018,03,11,10,24,8.20
2018,03,11,10,25,8.30
2018,03,11,10,26,8.30
2018,03,11,10,27,8.30
2018,03,11,10,28,8.30
2018,03,11,10,29,8.40
2018,03,11,10,30,8.40
2018,03,11,10,31,8.40
2018,03,11,10,32,8.40
2018,03,11,10,33,8.40
2018,03,11,10,34,8.50
2018,03,11,10,35,8.60
2018,03,11,10,36,8.70
2018,03,11,10,37,8.80
2018,03,11,10,38,8.90
2018,03,11,10,39,9.00
2018,03,11,10,40,9.00
2018,03,11,10,41,9.00
2018,03,11,10,42,9.10
2018,03,11,10,43,9.10
2018,03,11,10,44,9.20
2018,03,11,10,45,9.20
2018,03,11,10,46,9.30
2018,03,11,10,47,9.30
2018,03,11,10,48,9.30
2018,03,11,10,49,9.20
2018,03,11,10,50,9.20
2018,03,11,10,51,9.20
2018,03,11,10,52,9.20
2018,03,11,10,53,9.20
2018,03,11,10,54,9.20
2018,03,11,10,55,9.20
2018,03,11,10,56,9.30
2018,03,11,10,57,9.30
2018,03,11,10,58,9.40
2018,03,11,10,59,9.50
2018,03,11,11,00,9.60
2018,03,11,11,01,9.60
2018,03,11,11,02,9.60
2018,03,11,11,03,9.70
2018,03,11,11,04,9.70
2018,03,11,11,05,9.80
2018,03,11,11,06,9.80
2018,03,11,11,07,9.80
2018,03,11,11,08,9.80
2018,03,11,11,09,9.90
2018,03,11,11,10,9.90
2018,03,11,11,11,10.00
2018,03,11,11,12,10.00
2018,03,11,11,13,10.10
2018,03,11,11,14,10.10
2018,03,11,11,15,10.20
2018,03,11,11,16,10.20
2018,03,11,11,17,10.20
2018,03,11,11,18,10.10
2018,03,11,11,19,10.10
2018,03,11,11,20,10.00
2018,03,11,11,21,10.00
2018,03,11,11,22,9.90
2018,03,11,11,23,9.90
2018,03,11,11,24,10.00
2018,03,11,11,25,10.00
2018,03,11,11,26,10.10
2018,03,11,11,27,10.10
2018,03,11,11,28,10.20
2018,03,11,11,29,10.30
2018,03,11,11,30,10.40
2018,03,11,11,31,10.40
2018,03,11,11,32,10.50
2018,03,11,11,33,10.50
2018,03,11,11,34,10.50
2018,03,11,11,35,10.50
2018,03,11,11,36,10.50
2018,03,11,11,37,10.40
2018,03,11,11,38,10.50
2018,03,11,11,39,10.50
2018,03,11,11,40,10.50
2018,03,11,11,41,10.40
2018,03,11,11,42,10.50
2018,03,11,11,43,10.50
2018,03,11,11,44,10.60
2018,03,11,11,45,10.60
2018,03,11,11,46,10.70
2018,03,11,11,47,10.70
2018,03,11,11,48,10.80
2018,03,11,11,49,10.80
2018,03,11,11,50,10.90
2018,03,11,11,51,10.90
2018,03,11,11,52,11.00
2018,03,11,11,53,11.00
2018,03,11,11,54,11.10
2018,03,11,11,55,11.20
2018,03,11,11,56,11.30
2018,03,11,11,57,11.30
2018,03,11,11,58,11.30
2018,03,11,11,59,11.30
2018,03,11,12,00,11.40
2018,03,11,12,01,11.40
2018,03,11,12,02,11.40
2018,03,11,12,03,11.40
2018,03,11,12,04,11.40
2018,03,11,12,05,11.40
2018,03,11,12,06,11.30
2018,03,11,12,07,11.30
2018,03,11,12,08,11.30
2018,03,11,12,09,11.30
2018,03,11,12,10,11.30
2018,03,11,12,11,11.30
2018,03,11,12,12,11.30
2018,03,11,12,13,11.40
2018,03,11,12,14,11.50
2018,03,11,12,15,11.60
2018,03,11,12,16,11.70
2018,03,11,12,17,11.80
2018,03,11,12,18,11.80
2018,03,11,12,19,11.90
2018,03,11,12,20,12.00
2018,03,11,12,21,12.00
2018,03,11,12,22,12.10
2018,03,11,12,23,12.20
2018,03,11,12,24,12.20
2018,03,11,12,25,12.20
2018,03,11,12,26,12.20
2018,03,11,12,27,12.20
2018,03,11,12,28,12.30
2018,03,11,12,29,12.30
2018,03,11,12,30,12.40
2018,03,11,12,31,12.40
2018,03,11,12,32,12.40
2018,03,11,12,33,12.30
2018,03,11,12,34,12.30
2018,03,11,12,35,12.30
2018,03,11,12,36,12.40
2018,03,11,12,37,12.40
2018,03,11,12,38,12.50
2018,03,11,12,39,12.50
2018,03,11,12,40,12.50
2018,03,11,12,41,12.60
2018,03,11,12,42,12.60
2018,03,11,12,43,12.60
2018,03,11,12,44,12.70
2018,03,11,12,45,12.70
2018,03,11,12,46,12.70
2018,03,11,12,47,12.70
2018,03,11,12,48,12.80
2018,03,11,12,49,12.80
2018,03,11,12,50,12.90
2018,03,11,12,51,13.00
2018,03,11,12,52,13.10
2018,03,11,12,53,13.10
2018,03,11,12,54,13.10
2018,03,11,12,55,13.00
2018,03,11,12,56,13.00
2018,03,11,12,57,13.00
2018,03,11,12,58,13.10
2018,03,11,12,59,13.10
2018,03,11,13,00,13.00
2018,03,11,13,01,13.00
2018,03,11,13,02,12.90
2018,03,11,13,03,12.90
2018,03,11,13,04,12.90
2018,03,11,13,05,12.90
2018,03,11,13,06,12.90
2018,03,11,13,07,12.90
2018,03,11,13,08,12.90
2018,03,11,13,09,12.90
2018,03,11,13,10,12.90
2018,03,11,13,11,13.00
2018,03,11,13,12,12.90
2018,03,11,13,13,12.90
2018,03,11,13,14,12.90
2018,03,11,13,15,13.00
2018,03,11,13,16,12.90
2018,03,11,13,17,12.90
2018,03,11,13,18,12.90
2018,03,11,13,19,12.80
2018,03,11,13,20,12.80
2018,03,11,13,21,12.80
2018,03,11,13,22,12.90
2018,03,11,13,23,12.90
2018,03,11,13,24,13.00
2018,03,11,13,25,13.00
2018,03,11,13,26,13.10
2018,03,11,13,27,13.10
2018,03,11,13,28,13.20
2018,03,11,13,29,13.20
2018,03,11,13,30,13.20
2018,03,11,13,31,13.20
2018,03,11,13,32,13.20
2018,03,11,13,33,13.30
2018,03,11,13,34,13.30
2018,03,11,13,35,13.40
2018,03,11,13,36,13.40
2018,03,11,13,37,13.40
2018,03,11,13,38,13.50
2018,03,11,13,39,13.50
2018,03,11,13,40,13.40
2018,03,11,13,41,13.40
2018,03,11,13,42,13.40
2018,03,11,13,43,13.50
2018,03,11,13,44,13.50
2018,03,11,13,45,13.60
2018,03,11,13,46,13.70
2018,03,11,13,47,13.80
2018,03,11,13,48,13.80
2018,03,11,13,49,13.80
2018,03,11,13,50,13.80
2018,03,11,13,51,13.80
2018,03,11,13,52,13.90
2018,03,11,13,53,13.90
2018,03,11,13,54,13.90
2018,03,11,13,55,13.80
2018,03,11,13,56,13.80
2018,03,11,13,57,13.70
2018,03,11,13,58,13.70
2018,03,11,13,59,13.70
2018,03,11,14,00,13.70
2018,03,11,14,01,13.70
2018,03,11,14,02,13.70
2018,03,11,14,03,13.60
2018,03,11,14,04,13.60
2018,03,11,14,05,13.50
2018,03,11,14,06,13.50
2018,03,11,14,07,13.50
2018,03,11,14,08,13.50
2018,03,11,14,09,13.50
2018,03,11,14,10,13.50
2018,03,11,14,11,13.50
2018,03,11,14,12,13.60
2018,03,11,14,13,13.60
2018,03,11,14,14,13.50
2018,03,11,14,15,13.60
2018,03,11,14,16,13.60
2018,03,11,14,17,13.60
2018,03,11,14,18,13.70
2018,03,11,14,19,13.80
2018,03,11,14,20,13.80
2018,03,11,14,21,13.80
2018,03,11,14,22,13.80
2018,03,11,14,23,13.80
2018,03,11,14,24,13.80
2018,03,11,14,25,13.90
2018,03,11,14,26,13.90
2018,03,11,14,27,14.00
2018,03,11,14,28,14.00
2018,03,11,14,29,14.10
2018,03,11,14,30,14.20
2018,03,11,14,31,14.20
2018,03,11,14,32,14.20
2018,03,11,14,33,14.20
2018,03,11,14,34,14.20
2018,03,11,14,35,14.10
2018,03,11,14,36,14.20
2018,03,11,14,37,14.20
2018,03,11,14,38,14.20
2018,03,11,14,39,14.20
2018,03,11,14,40,14.20
2018,03,11,14,41,14.20
2018,03,11,14,42,14.20
2018,03,11,14,43,14.20
2018,03,11,14,44,14.20
2018,03,11,14,45,14.30
2018,03,11,14,46,14.40
2018,03,11,14,47,14.50
2018,03,11,14,48,14.40
2018,03,11,14,49,14.40
2018,03,11,14,50,14.30
2018,03,11,14,51,14.30
2018,03,11,14,52,14.20
2018,03,11,14,53,14.20
2018,03,11,14,54,14.20
2018,03,11,14,55,14.30
2018,03,11,14,56,14.30
2018,03,11,14,57,14.30
2018,03,11,14,58,14.30
2018,03,11,14,59,14.20
2018,03,11,15,00,14.20
2018,03,11,15,01,14.20
2018,03,11,15,02,14.20
2018,03,11,15,03,14.20
2018,03,11,15,04,14.10
2018,03,11,15,05,14.10
2018,03,11,15,06,14.20
2018,03,11,15,07,14.20
2018,03,11,15,08,14.30
2018,03,11,15,09,14.40
2018,03,11,15,10,14.60
2018,03,11,15,11,14.70
2018,03,11,15,12,14.80
2018,03,11,15,13,14.80
2018,03,11,15,14,14.80
2018,03,11,15,15,14.90
2018,03,11,15,16,15.00
2018,03,11,15,17,15.00
2018,03,11,15,18,15.10
2018,03,11,15,19,15.20
2018,03,11,15,20,15.20
2018,03,11,15,21,15.30
2018,03,11,15,22,15.30
2018,03,11,15,23,15.30
2018,03,11,15,24,15.40
2018,03,11,15,25,15.40
2018,03,11,15,26,15.40
2018,03,11,15,27,15.50
2018,03,11,15,28,15.50
2018,03,11,15,29,15.40
2018,03,11,15,30,15.40
2018,03,11,15,31,15.50
2018,03,11,15,32,15.50
2018,03,11,15,33,15.60
2018,03,11,15,34,15.60
2018,03,11,15,35,15.70
2018,03,11,15,36,15.70
2018,03,11,15,37,15.80
2018,03,11,15,38,15.80
2018,03,11,15,39,15.80
2018,03,11,15,40,15.80
2018,03,11,15,41,15.80
2018,03,11,15,42,15.80
2018,03,11,15,43,15.80
2018,03,11,15,44,15.70
2018,03,11,15,45,15.70
2018,03,11,15,46,15.60
2018,03,11,15,47,15.50
2018,03,11,15,48,15.40
2018,03,11,15,49,15.40
2018,03,11,15,50,15.40
2018,03,11,15,51,15.40
2018,03,11,15,52,15.40
2018,03,11,15,53,15.30
2018,03,11,15,54,15.30
2018,03,11,15,55,15.30
2018,03,11,15,56,15.30
2018,03,11,15,57,15.30
2018,03,11,15,58,15.30
2018,03,11,15,59,15.30
2018,03,11,16,00,15.30
2018,03,11,16,01,15.30
2018,03,11,16,02,15.40
2018,03,11,16,03,15.50
2018,03,11,16,04,15.50
2018,03,11,16,05,15.50
2018,03,11,16,06,15.50
2018,03,11,16,07,15.50
2018,03,11,16,08,15.60
2018,03,11,16,09,15.50
2018,03,11,16,10,15.50
2018,03,11,16,11,15.50
2018,03,11,16,12,15.50
2018,03,11,16,13,15.50
2018,03,11,16,14,15.50
2018,03,11,16,15,15.50
2018,03,11,16,16,15.50
2018,03,11,16,17,15.50
2018,03,11,16,18,15.50
2018,03,11,16,19,15.50
2018,03,11,16,20,15.60
2018,03,11,16,21,15.60
2018,03,11,16,22,15.60
2018,03,11,16,23,15.60
2018,03,11,16,24,15.50
2018,03,11,16,25,15.40
2018,03,11,16,26,15.30
2018,03,11,16,27,15.20
2018,03,11,16,28,15.20
2018,03,11,16,29,15.20
2018,03,11,16,30,15.10
2018,03,11,16,31,15.00
2018,03,11,16,32,15.00
2018,03,11,16,33,14.90
2018,03,11,16,34,14.80
2018,03,11,16,35,14.70
2018,03,11,16,36,14.60
2018,03,11,16,37,14.60
2018,03,11,16,38,14.50
2018,03,11,16,39,14.30
2018,03,11,16,40,14.30
2018,03,11,16,41,14.20
2018,03,11,16,42,14.20
2018,03,11,16,43,14.20
2018,03,11,16,44,14.20
2018,03,11,16,45,14.20
2018,03,11,16,46,14.20
2018,03,11,16,47,14.20
2018,03,11,16,48,14.20
2018,03,11,16,49,14.20
2018,03,11,16,50,14.20
2018,03,11,16,51,14.20
2018,03,11,16,52,14.20
2018,03,11,16,53,14.20
2018,03,11,16,54,14.10
2018,03,11,16,55,14.10
2018,03,11,16,56,14.10
2018,03,11,16,57,14.10
2018,03,11,16,58,14.10
2018,03,11,16,59,14.10
2018,03,11,17,00,14.10
2018,03,11,17,01,14.00
2018,03,11,17,02,14.00
2018,03,11,17,03,13.90
2018,03,11,17,04,13.90
2018,03,11,17,05,13.80
2018,03,11,17,06,13.80
2018,03,11,17,07,13.80
2018,03,11,17,08,13.80
2018,03,11,17,09,13.70
2018,03,11,17,10,13.60
2018,03,11,17,11,13.50
2018,03,11,17,12,13.50
2018,03,11,17,13,13.40
2018,03,11,17,14,13.40
2018,03,11,17,15,13.40
2018,03,11,17,16,13.30
2018,03,11,17,17,13.30
2018,03,11,17,18,13.30
2018,03,11,17,19,13.30
2018,03,11,17,20,13.30
2018,03,11,17,21,13.30
2018,03,11,17,22,13.30
2018,03,11,17,23,13.30
2018,03,11,17,24,13.30
2018,03,11,17,25,13.30
2018,03,11,17,26,13.30
2018,03,11,17,27,13.30
2018,03,11,17,28,13.20
2018,03,11,17,29,13.20
2018,03,11,17,30,13.20
2018,03,11,17,31,13.20
2018,03,11,17,32,13.20
2018,03,11,17,33,13.20
2018,03,11,17,34,13.20
2018,03,11,17,35,13.20
2018,03,11,17,36,13.20
2018,03,11,17,37,13.20
2018,03,11,17,38,13.20
2018,03,11,17,39,13.20
2018,03,11,17,40,13.20
2018,03,11,17,41,13.20
2018,03,11,17,42,13.20
2018,03,11,17,43,13.20
2018,03,11,17,44,13.20
2018,03,11,17,45,13.20
2018,03,11,17,46,13.10
2018,03,11,17,47,13.10
2018,03,11,17,48,13.00
2018,03,11,17,49,13.00
2018,03,11,17,50,12.90
2018,03,11,17,51,12.90
2018,03,11,17,52,12.80
2018,03,11,17,53,12.80
2018,03,11,17,54,12.80
2018,03,11,17,55,12.70
2018,03,11,17,56,12.60
2018,03,11,17,57,12.50
2018,03,11,17,58,12.50
2018,03,11,17,59,12.40
2018,03,11,18,00,12.40
2018,03,11,18,01,12.30
2018,03,11,18,02,12.20
2018,03,11,18,03,12.10
2018,03,11,18,04,12.10
2018,03,11,18,05,12.00
2018,03,11,18,06,11.90
2018,03,11,18,07,11.80
2018,03,11,18,08,11.80
2018,03,11,18,09,11.70
2018,03,11,18,10,11.60
2018,03,11,18,11,11.60
2018,03,11,18,12,11.50
2018,03,11,18,13,11.50
2018,03,11,18,14,11.40
2018,03,11,18,15,11.30
2018,03,11,18,16,11.30
2018,03,11,18,17,11.20
2018,03,11,18,18,11.20
2018,03,11,18,19,11.10
2018,03,11,18,20,11.10
2018,03,11,18,21,11.10
2018,03,11,18,22,11.00
2018,03,11,18,23,11.00
2018,03,11,18,24,10.90
2018,03,11,18,25,10.90
2018,03,11,18,26,10.80
2018,03,11,18,27,10.80
2018,03,11,18,28,10.70
2018,03,11,18,29,10.70
2018,03,11,18,30,10.60
2018,03,11,18,31,10.50
2018,03,11,18,32,10.40
2018,03,11,18,33,10.40
2018,03,11,18,34,10.30
2018,03,11,18,35,10.20
2018,03,11,18,36,10.20
2018,03,11,18,37,10.10
2018,03,11,18,38,10.00
2018,03,11,18,39,9.90
2018,03,11,18,40,9.90